This is the latest recevied weather packets stored in our database for station/object F1AGU-13. If no packets are shown the sender has not sent any weather packets the latest 10 day(s).
| Time | Temp. | Humidity | Pressure | Rain* | Wind** | Luminosity | Snow |
|---|---|---|---|---|---|---|---|
| 1777460116 | 12.78° C | 93% | 1017.1 hPa | 0 mm | - | - | - |
| 1777459516 | 11.67° C | 94% | 1017 hPa | 0 mm | - | - | - |
| 1777458916 | 11.67° C | 94% | 1017 hPa | 0 mm | - | - | - |
| 1777458316 | 11.11° C | 96% | 1017 hPa | 0 mm | - | - | - |
| 1777457716 | 11.11° C | 97% | 1017 hPa | 0 mm | - | - | - |
| 1777457116 | 10.56° C | 97% | 1016.7 hPa | 0 mm | - | - | - |
| 1777456516 | 10.56° C | 97% | 1016.6 hPa | 0 mm | - | - | - |
| 1777455916 | 10° C | 97% | 1016.5 hPa | 0 mm | - | - | - |
| 1777455316 | 10.56° C | 97% | 1016.5 hPa | 0 mm | - | - | - |
| 1777454716 | 10.56° C | 98% | 1016.5 hPa | 0 mm | - | - | - |
| 1777454116 | 10° C | 98% | 1016.5 hPa | 0 mm | - | - | - |
| 1777453516 | 10° C | 98% | 1016.4 hPa | 0 mm | - | - | - |
| 1777452916 | 10° C | 98% | 1016.4 hPa | 0 mm | - | - | - |
| 1777452316 | 10° C | 98% | 1016.4 hPa | 0 mm | - | - | - |
| 1777451716 | 10° C | 99% | 1016.4 hPa | 0 mm | - | - | - |
| 1777451116 | 10° C | 99% | 1016.5 hPa | 0 mm | - | - | - |
| 1777450516 | 10° C | 99% | 1016.3 hPa | 0 mm | - | - | - |
| 1777449916 | 9.44° C | 99% | 1016.2 hPa | 0 mm | - | - | - |
| 1777449316 | 8.89° C | 99% | 1016.3 hPa | 0 mm | - | - | - |
| 1777448716 | 8.89° C | 99% | 1016.1 hPa | 0 mm | - | - | - |
| 1777448116 | 8.33° C | 99% | 1016 hPa | 0 mm | - | - | - |
| 1777447516 | 8.33° C | 99% | 1016 hPa | 0 mm | - | - | - |
| 1777446916 | 7.78° C | 99% | 1015.8 hPa | 0 mm | - | - | - |
| 1777446316 | 7.22° C | 98% | 1015.8 hPa | 0 mm | - | - | - |
| 1777445716 | 7.22° C | 98% | 1015.6 hPa | 0 mm | - | - | - |
* Rain latest hour (hover to see other rain measurements)
** Current wind speed in m/s (hover to see current wind gust speed)